Weather History for Dublin, Ireland

Change the Weather History Date:

Saturday, October 1, 2011

  Actual Average Record
Temperature  
Mean Temperature 56 °F -  
Max Temperature 56 °F 57 °F 66 °F (1997)
Min Temperature 55 °F 46 °F 41 °F (1996)
Degree Days  
Heating Degree Days 10    
Growing Degree Days 6 (Base 50)    
Moisture  
Dew Point 56 °F    
Average Humidity 99    
Maximum Humidity 100    
Minimum Humidity 94    
Precipitation  
Precipitation 0.79 in 0.09 in - ()
Sea Level Pressure  
Sea Level Pressure 30.17 in    
Wind  
Wind Speed 6 mph ()    
Max Wind Speed 13 mph    
Max Gust Speed -    
Visibility 3.6 miles    
Events Rain    
Averages and records for this station are not official NWS values.
T = Trace of Precipitation, MM = Missing Value Source: Averaged Metar Reports

Daily Weather History Graph

Daily Weather History Graph

Search for Another Location

Airport:

Trip Planner

Search our weather history database for the weather conditions in past years. The results will help you decide how hot, cold, wet, or windy it might be!

Date:

Astronomy

Oct. 01, 2011 Rise Set
Actual Time 7:26 AM IST 7:02 PM IST
Civil Twilight 6:51 AM IST 7:37 PM IST
Nautical Twilight 6:10 AM IST 8:18 PM IST
Astronomical Twilight 5:28 AM IST 8:59 PM IST
Moon 1:07 PM IST (10/1) 8:55 PM IST (10/1)
Length of Visible Light 12h 46m
Length of Day
11h 36m
Waxing Crescent, 22% of the Moon is Illuminated
Oct 1
Waxing Crescent
Oct 4
First Quarter
Oct 12
Full
Oct 20
Last Quarter
Oct 26
New

Hourly Weather History & Observations

Time (IST) Temp. Dew Point Humidity Pressure Visibility Wind Dir Wind Speed Gust Speed Precip Events Conditions
12:00 AM 59.0 °F 59.0 °F 100% 30.12 in 5.0 mi SSW 2.3 mph - N/A Rain Light Rain
12:30 AM 59.0 °F 59.0 °F 100% 30.12 in 5.6 mi SW 2.3 mph - N/A   Light Drizzle
1:00 AM 59 °F 58 °F 97% 30.13 in 5 mi North 2.2 mph - - Rain Light Rain
1:00 AM 59.0 °F 59.0 °F 100% 30.12 in 4.3 mi North 1.2 mph - N/A Rain Light Rain
1:30 AM 59.0 °F 57.2 °F 94% 30.12 in 3.7 mi North 1.2 mph - N/A Rain Light Rain
2:00 AM 57.2 °F 57.2 °F 100% 30.12 in 5.0 mi North 5.8 mph - N/A Rain Light Rain
2:30 AM 57.2 °F 57.2 °F 100% 30.12 in 5.0 mi North 5.8 mph - N/A Rain Light Rain
3:00 AM 57.2 °F 57.2 °F 100% 30.12 in 5.0 mi North 5.8 mph - N/A   Mostly Cloudy
3:30 AM 57.2 °F 57.2 °F 100% 30.12 in 5.0 mi North 5.8 mph - N/A Rain Light Rain
4:00 AM 57.2 °F 57.2 °F 100% 30.12 in 6.2 mi North 5.8 mph - N/A Rain Light Rain
4:30 AM 57.2 °F 57.2 °F 100% 30.12 in 6.2 mi NNE 6.9 mph - N/A Rain Light Rain
5:00 AM 57.2 °F 57.2 °F 100% 30.12 in 4.3 mi NNE 8.1 mph - N/A Rain Light Rain
5:30 AM 57.2 °F 57.2 °F 100% 30.15 in 4.3 mi NNE 10.4 mph - N/A Rain Light Rain
6:00 AM 57.2 °F 55.4 °F 94% 30.12 in 4.3 mi NNE 10.4 mph - N/A Rain Light Rain
6:30 AM 55.4 °F 55.4 °F 100% 30.12 in 4.3 mi NNE 9.2 mph - N/A Rain Heavy Rain
7:00 AM 56 °F 56 °F 100% 30.16 in 4 mi NE 11.2 mph - - Rain Rain
7:00 AM 55.4 °F 55.4 °F 100% 30.15 in 4.3 mi NE 9.2 mph - N/A Rain Rain
7:30 AM 55.4 °F 55.4 °F 100% 30.15 in 4.3 mi NE 9.2 mph - N/A Rain Rain
8:00 AM 55.4 °F 55.4 °F 100% 30.15 in 4.3 mi NNE 11.5 mph - N/A   Light Drizzle
8:30 AM 55.4 °F 55.4 °F 100% 30.15 in 5.0 mi North 9.2 mph - N/A   Mostly Cloudy
9:00 AM 55.4 °F 55.4 °F 100% 30.15 in 1.1 mi NNE 10.4 mph - N/A Rain Light Rain
9:30 AM 55.4 °F 55.4 °F 100% 30.15 in 1.1 mi NE 11.5 mph - N/A Rain Light Rain
10:00 AM 55.4 °F 55.4 °F 100% 30.18 in 1.2 mi NE 9.2 mph - N/A Rain Light Rain
10:30 AM 55.4 °F 55.4 °F 100% 30.18 in - NNE 8.1 mph - N/A Rain Light Rain
11:00 AM 55.4 °F 55.4 °F 100% 30.18 in 4.3 mi NNE 11.5 mph - N/A Rain Light Rain
11:30 AM 55.4 °F 55.4 °F 100% 30.18 in - North 9.2 mph - N/A Rain Light Rain
12:00 PM 55.4 °F 55.4 °F 100% 30.18 in - NNE 12.7 mph - N/A Rain Light Rain
12:30 PM 57.2 °F 57.2 °F 100% 30.18 in - NNE 9.2 mph - N/A Rain Rain
1:00 PM 56 °F 56 °F 100% 30.21 in 2 mi NE 11.2 mph - - Rain Light Rain
1:00 PM 55.4 °F 55.4 °F 100% 30.18 in 2.5 mi NE 10.4 mph - N/A Rain Light Rain
1:30 PM 55.4 °F 55.4 °F 100% 30.18 in 2.5 mi NE 9.2 mph - N/A Rain Light Rain
2:00 PM 57.2 °F 57.2 °F 100% 30.18 in 3.7 mi NE 10.4 mph - N/A Rain Light Rain
2:30 PM 55.4 °F 55.4 °F 100% 30.18 in 5.0 mi NE 12.7 mph - N/A Rain Light Rain
3:00 PM 57.2 °F 55.4 °F 94% 30.18 in 4.3 mi NE 10.4 mph - N/A Rain Light Rain
3:30 PM 55.4 °F 55.4 °F 100% 30.18 in 4.3 mi NE 10.4 mph - N/A Rain Light Rain
4:00 PM 57.2 °F 55.4 °F 94% 30.18 in 4.3 mi NE 9.2 mph - N/A Rain Light Rain
4:30 PM 57.2 °F 55.4 °F 94% 30.18 in 4.3 mi NE 5.8 mph - N/A Rain Light Rain
5:00 PM 57.2 °F 55.4 °F 94% 30.21 in 2.5 mi NE 5.8 mph - N/A Rain Light Rain
5:30 PM 55.4 °F 55.4 °F 100% 30.21 in 3.1 mi NE 4.6 mph - N/A Rain Light Rain
6:00 PM 55.4 °F 55.4 °F 100% 30.21 in 3.1 mi NE 4.6 mph - N/A Rain Light Rain
6:30 PM 55.4 °F 55.4 °F 100% 30.21 in 3.7 mi ENE 4.6 mph - N/A Rain Light Rain
7:00 PM 56 °F 56 °F 99% 30.21 in 2 mi East 6.7 mph - - Rain Light Rain
7:00 PM 55.4 °F 55.4 °F 100% 30.18 in 2.5 mi East 6.9 mph - N/A Rain Light Rain
7:30 PM 55.4 °F 55.4 °F 100% 30.21 in 2.5 mi ENE 4.6 mph - N/A Rain Light Rain
8:00 PM 55.4 °F 55.4 °F 100% 30.21 in 1.9 mi NE 5.8 mph - N/A Rain Light Rain
8:30 PM 55.4 °F 55.4 °F 100% 30.21 in 1.6 mi ENE 5.8 mph - N/A Rain Light Rain
9:00 PM 55.4 °F 55.4 °F 100% 30.21 in 1.9 mi East 5.8 mph - N/A Rain Light Rain
9:30 PM 55.4 °F 55.4 °F 100% 30.21 in 1.7 mi East 8.1 mph - N/A Rain Light Rain
10:00 PM 55.4 °F 55.4 °F 100% 30.21 in 2.2 mi East 6.9 mph - N/A Rain Light Rain
10:30 PM 55.4 °F 55.4 °F 100% 30.21 in 2.2 mi NNE 6.9 mph - N/A Rain Light Rain
11:00 PM 55.4 °F 55.4 °F 100% 30.21 in 1.9 mi NNE 6.9 mph - N/A Rain Light Rain
11:30 PM 55.4 °F 55.4 °F 100% 30.21 in 1.9 mi North 8.1 mph - N/A Rain Light Rain